Flag Weather past 2 weeks in Kapurthala, Punjab, India

Now
55 °F

Fog.


Feels Like: 55 °F
Forecast: 62 / 86 °F
Wind: No wind

Location: Amritsar Airport

Current Time: Nov 1, 2014 at 7:21:52 AM

Latest Report: Nov 1, 2014 at 6:30 AM


Visibility: 1 mi

Pressure: 29.95 "Hg

Humidity: 100%

Dew point: 55 °F

Location of KapurthalaLocation

Historic Weather in Kapurthala — Graph

°F

Kapurthala temperature yesterday

Maximum temperature yesterday: 82 °F (at 2:30 PM)
Minimum temperature yesterday: 57 °F (at 7:00 AM)
Average temperature yesterday: 68 °F

Past Weeks' High & Low Weather Summary

 TemperatureHumidityPressure
High88 °F (Oct 21, 2:00 PM)100% (Oct 17, 5:30 AM)30.09 "Hg (Oct 17, 5:30 AM)
Low55 °F (Nov 1, 5:30 AM)34% (Oct 31, 4:00 PM)29.86 "Hg (Oct 25, 4:00 PM)
Average72 °F77%29.96 "Hg
* Reported Oct 17 5:30 AM — Nov 1 6:00 AM, Kapurthala, Weather by CustomWeather, © 2014

Note: Actual official high and low records may vary slightly from our data, if they occured in-between our weather recording intervals... More about our weather records

Advertising

Kapurthala weather history for previous 24 hours

 ConditionsComfort  
Time TempWeatherWind HumidityBarometerVisibility
6:00 AM
Nov 1
57 °FFog.No wind100%29.95 "Hg1 mi
5:30 AM55 °FFog.No wind100%29.95 "Hg1 mi
5:00 AM57 °FFog.No wind100%29.95 "Hg1 mi
4:30 AM57 °FFog.No wind94%29.95 "Hg1 mi
4:00 AM59 °FFog.No wind100%29.95 "Hg1 mi
3:30 AM59 °FFog.No wind94%29.95 "Hg1 mi
3:00 AM59 °FFog.No wind94%29.95 "Hg1 mi
2:30 AM59 °FFog.No wind94%29.98 "Hg1 mi
2:00 AM59 °FFog.No wind88%29.98 "Hg1 mi
1:30 AM61 °FFog.No wind88%29.98 "Hg1 mi
1:00 AM61 °FFog.No wind88%29.98 "Hg1 mi
12:30 AM61 °FFog.No wind88%29.98 "Hg1 mi
12:00 AM61 °FFog.No wind94%29.98 "Hg1 mi
11:30 PM
Oct 31
61 °FFog.No wind94%30.01 "Hg1 mi
11:00 PM63 °FFog.No wind88%30.01 "Hg1 mi
10:30 PM63 °FFog.No wind88%30.01 "Hg2 mi
10:00 PM64 °FFog.No wind78%29.98 "Hg2 mi
9:30 PM64 °FFog.No wind78%29.98 "Hg2 mi
9:00 PM64 °FFog.No wind83%29.98 "Hg2 mi
8:30 PM66 °FHaze.No wind73%29.98 "Hg2 mi
8:00 PM66 °FPassing clouds.No wind78%29.98 "Hg2 mi
7:30 PM70 °FPassing clouds.No wind64%29.98 "Hg2 mi
7:00 PM70 °FPassing clouds.No wind64%29.95 "Hg2 mi
6:30 PM72 °FPassing clouds.No wind61%29.95 "Hg2 mi
5:30 PM75 °FScattered clouds.No wind50%29.95 "Hg2 mi
5:00 PM79 °FScattered clouds.3 mph45%29.95 "Hg2 mi
4:30 PM81 °FScattered clouds.7 mph39%29.95 "Hg2 mi
4:00 PM81 °FScattered clouds.9 mph34%29.95 "Hg2 mi
3:30 PM81 °FScattered clouds.9 mph37%29.95 "Hg2 mi
3:00 PM82 °FScattered clouds.8 mph35%29.95 "Hg3 mi
2:30 PM82 °FScattered clouds.7 mph35%29.95 "Hg3 mi
2:00 PM81 °FScattered clouds.6 mph39%29.98 "Hg3 mi
12:00 PM79 °FHaze.6 mph48%30.04 "Hg3 mi
11:30 AM77 °FHaze.5 mph51%30.04 "Hg3 mi
11:00 AM75 °FHaze.6 mph57%30.04 "Hg2 mi
10:30 AM73 °FHaze.5 mph65%30.04 "Hg2 mi
9:30 AM68 °FFog.2 mph83%30.04 "Hg2 mi
9:00 AM64 °FFog.3 mph94%30.04 "Hg1 mi
8:30 AM63 °FFog.3 mph100%30.04 "Hg1 mi
8:00 AM61 °FFog.2 mph100%30.01 "Hg1 mi
7:00 AM57 °FFog.No wind100%29.98 "Hg1 mi
Weather by CustomWeather, © 2014

See weather overviewHow to use our weather pages